RH
35 34 43 53 62 43 76 93 77 74 62 69 78 86 82 65 59 43 42 38 34 33 31 30 31 32 31 32 35 37 35 38 39 43 45 40 40 44 46 42 34 38 42
18 19 23 36 54 59 49 65 83 73 71 68 68 85 81 67 50 44 43 42 36 36 34 32 32 34 34 35 35 36 42 39 39 43 44 37 38 39 44 46 50 53 50
19 18 19 25 34 44 50 49 69 84 76 70 78 82 78 80 62 54 49 43 40 38 39 37 36 35 36 37 38 40 42 45 39 38 38 39 40 38 37 38 40 48 54
20 21 21 22 26 39 45 49 61 70 83 85 74 72 74 76 67 72 69 45 44 43 46 43 41 40 40 40 41 43 45 44 44 42 43 45 43 43 41 38 42 45 51
24 26 23 24 26 36 41 48 49 53 58 76 78 66 68 76 72 79 80 53 50 49 58 60 53 47 46 45 43 44 47 49 48 48 48 52 49 45 46 44 42 46 48
24 32 32 57 33 24 28 38 43 52 56 65 63 66 69 70 70 77 78 78 64 62 62 76 72 67 61 55 55 56 52 50 51 54 53 56 57 56 54 52 52 46 44
23 25 38 57 72 60 39 28 32 43 50 49 54 62 62 64 68 80 83 86 83 80 64 68 85 99 100 96 83 73 66 56 55 56 58 62 62 60 62 63 60 57 50
36 26 24 45 42 43 40 44 37 32 36 40 42 34 36 53 60 69 87 90 100 100 100 100 99 90 76 94 100 100 95 89 73 61 62 64 68 68 67 68 75 68 64
46 38 29 30 34 34 31 40 70 100 93 75 70 65 44 45 51 55 83 87 92 93 90 98 100 100 100 100 94 100 89 87 89 79 73 68 70 78 79 78 81 80 75
46 48 36 34 36 38 32 30 33 57 76 93 84 85 75 63 59 59 71 94 93 96 99 100 100 100 100 100 100 98 91 99 100 99 100 100 98 82 89 96 98 97 95
46 43 38 38 37 34 38 36 30 33 54 56 91 96 81 93 78 78 87 97 100 100 100 100 100 100 100 98 93 87 98 97 89 88 81 84 95 100 92 83 93 100 100
64 54 48 50 49 47 42 36 53 38 38 40 48 83 100 87 83 72 63 64 61 67 70 74 76 86 100 99 91 86 89 91 92 89 78 80 98 100 100 100 100 100 100
79 69 66 58 52 54 49 39 36 62 58 44 41 40 86 100 100 98 83 72 72 70 53 36 31 38 42 62 84 90 97 100 99 95 88 82 76 96 100 100 100 92 100
91 82 67 65 61 58 57 48 39 41 44 44 45 42 44 72 99 100 100 76 78 93 100 100 88 72 62 65 64 63 69 64 66 72 78 89 80 91 99 91 100 100 100
57 52 46 51 53 49 43 39 38 40 44 64 84 68 56 39 62 96 100 100 77 80 100 100 99 90 80 64 56 49 45 45 45 50 55 50 46 72 77 79 89 82 93
49 48 49 39 39 41 33 27 32 34 37 43 70 65 61 47 35 65 92 100 98 79 98 96 100 94 96 91 50 38 35 34 34 39 40 38 36 40 44 46 51 63 67
45 43 38 35 31 31 30 26 23 26 27 28 32 37 39 40 37 34 72 91 100 93 100 96 100 100 95 90 78 53 43 37 39 39 39 41 41 42 46 44 58 50 46
30 32 36 40 30 29 31 25 23 20 19 21 24 24 27 34 36 32 33 59 84 100 86 100 100 100 100 87 96 81 48 40 42 44 45 45 43 36 32 34 55 70 52
32 31 29 33 32 30 32 30 26 24 21 22 24 23 22 26 34 32 33 30 62 88 98 87 96 84 95 91 86 73 73 60 46 48 56 53 46 44 38 34 42 48 55
45 42 39 32 27 23 21 25 31 31 26 18 19 22 24 27 29 32 31 34 32 68 81 99 100 100 99 97 100 90 64 54 55 57 52 55 53 50 44 41 42 51 53
34 33 33 29 20 18 21 19 18 24 30 24 25 22 22 22 22 28 32 29 25 30 63 79 93 100 100 93 91 96 88 56 52 53 55 57 56 50 45 39 41 49 58
18 18 18 17 15 10 10 10 14 16 22 25 28 24 18 17 18 22 27 34 40 28 27 33 73 81 70 64 48 53 73 54 50 48 47 45 52 50 41 37 42 50 58
8 8 8 7 7 6 6 6 7 8 10 12 14 18 13 12 13 11 15 21 33 37 28 26 28 52 56 46 37 40 48 44 43 46 43 42 41 36 36 35 39 42 47
7 6 6 5 4 4 4 3 3 4 4 6 5 6 8 7 9 9 10 12 18 24 26 25 24 26 28 34 28 31 35 37 40 36 41 43 36 36 35 38 39 43 49
6 5 4 4 3 3 3 3 3 3 3 3 3 4 4 5 6 6 8 8 9 13 18 25 28 20 21 27 28 27 27 28 26 27 28 33 34 35 36 35 40 51 53
4 4 3 3 3 3 3 3 3 4 4 4 4 3 3 3 4 5 5 6 7 9 12 14 19 24 23 22 22 24 26 29 28 30 31 29 31 33 33 39 42 42 54
Wind_Speed
39 39 41 42 40 39 36 35 34 32 30 31 31 30 29 29 27 24 25 23 19 20 18 17 16 16 15 15 14 14 14 15 14 15 16 17 15 14 14 14 13 14 15
40 40 39 40 41 40 40 39 38 36 34 33 32 31 30 29 28 25 24 24 23 21 20 19 17 17 16 17 18 18 17 18 17 17 19 18 15 15 16 15 16 17 16
31 35 37 37 40 43 42 42 40 37 34 33 34 33 31 30 28 27 26 25 24 24 22 21 21 18 19 19 20 20 20 21 20 20 21 20 19 17 17 17 18 20 19
23 28 33 34 35 39 42 41 44 44 42 38 36 34 34 32 32 31 29 28 27 26 25 24 24 22 21 22 22 22 22 22 23 23 23 23 22 20 19 20 19 21 21
16 17 23 29 33 37 38 41 43 44 44 44 43 41 39 36 34 32 33 32 30 30 28 27 25 26 25 25 26 26 25 24 23 24 25 25 23 21 20 22 24 24 23
20 17 16 16 25 33 38 42 42 43 46 45 46 45 45 44 41 36 33 35 35 33 31 30 28 28 28 27 27 28 28 28 27 26 26 25 25 25 24 24 25 26 26
26 22 18 19 18 17 28 35 38 41 44 46 45 47 47 47 44 40 36 36 36 35 35 34 34 33 33 31 29 30 30 30 30 30 30 29 29 27 27 26 27 27 28
32 30 26 29 24 20 18 22 27 35 39 38 39 43 45 46 46 44 41 39 38 37 38 37 37 36 36 37 35 32 32 33 33 33 34 34 34 33 31 31 30 31 33
34 36 35 33 33 31 24 22 20 20 24 31 35 39 43 45 46 46 46 44 43 45 43 41 41 40 41 40 39 37 38 36 37 37 37 37 38 37 36 37 35 35 34
38 38 39 39 39 38 34 29 28 25 25 27 29 31 37 43 48 48 49 50 49 50 48 48 48 48 45 44 44 44 42 41 41 42 43 41 40 40 41 41 41 39 38
42 44 43 41 43 41 41 40 37 33 33 31 30 29 33 34 41 48 51 52 53 54 55 55 54 53 53 52 50 49 48 47 46 46 45 46 45 45 44 44 44 43 43
51 50 48 48 47 45 45 46 42 43 43 39 35 35 35 35 38 40 48 50 51 53 56 58 58 56 57 58 57 54 53 52 52 51 50 49 50 49 48 47 47 47 48
58 57 55 55 52 50 49 49 49 47 47 46 46 43 41 40 40 43 42 40 43 44 46 49 51 52 51 52 57 57 56 56 55 55 55 54 53 52 51 51 49 53 55
64 65 64 62 62 60 57 55 53 50 50 51 50 49 46 46 46 44 45 46 41 40 38 40 41 45 47 48 51 55 57 57 57 58 60 59 55 53 54 54 56 56 55
73 70 71 69 69 68 64 62 60 57 53 48 51 52 53 51 50 51 48 46 44 41 38 36 33 32 33 35 38 41 45 48 51 55 57 56 56 56 56 57 59 60 60
77 77 75 74 75 74 71 69 66 65 62 58 56 55 55 57 54 54 55 52 50 40 39 38 35 33 32 31 31 32 35 37 39 41 42 46 45 45 46 52 57 59 61
85 83 82 79 78 79 79 76 72 71 68 67 65 63 61 59 61 59 58 58 53 44 41 39 38 37 36 33 33 32 33 31 32 30 29 33 35 36 42 46 48 51 57
90 88 86 85 83 81 82 80 79 76 74 71 70 70 67 64 64 65 63 64 60 55 44 44 44 41 40 40 42 41 43 42 41 39 39 40 42 47 48 47 45 45 47
90 90 89 88 86 86 86 84 82 79 79 77 74 76 75 71 69 69 70 69 67 63 62 56 52 50 47 48 50 49 49 50 48 47 51 48 49 52 51 51 48 46 46
94 95 95 94 92 92 92 91 90 88 87 84 82 81 81 79 75 73 72 74 75 73 69 67 64 62 61 60 59 58 56 54 52 55 55 55 56 56 57 55 53 49 47
100 100 100 100 100 98 97 97 96 95 96 93 91 88 87 85 82 77 77 78 78 79 78 73 72 71 69 69 67 66 63 61 57 59 59 59 61 62 63 59 58 56 55
105 106 106 106 107 105 102 101 100 100 99 99 96 93 92 92 88 85 85 80 82 82 82 82 79 77 74 75 71 70 67 66 65 65 62 64 66 68 67 61 62 61 61
100 100 102 104 105 105 105 105 103 103 102 103 101 100 99 97 95 91 89 87 86 85 86 85 83 85 81 80 76 73 71 67 68 69 69 70 73 71 67 65 65 67 68
102 102 102 104 103 102 102 101 99 98 97 102 102 102 102 98 96 95 93 92 90 88 89 88 87 85 84 81 80 79 77 75 71 71 76 78 75 71 69 67 69 71 70
98 97 97 97 97 95 91 91 92 90 89 92 96 97 97 98 98 95 97 96 92 92 92 88 89 88 85 85 85 84 83 81 78 74 74 77 77 76 75 74 72 71 73
88 88 87 86 83 85 82 82 84 86 87 85 86 84 85 85 86 91 92 95 92 92 91 90 89 88 85 85 84 84 85 84 82 80 78 76 73 76 79 77 75 75 75
Wind_Direction
258 258 257 258 254 253 249 252 250 247 250 251 254 260 265 271 276 282 282 282 281 285 289 289 294 301 305 311 311 316 316 314 314 319 321 325 324 322 320 321 317 322 326
258 253 252 250 245 245 248 249 251 250 246 249 251 255 260 265 271 272 277 278 276 278 283 287 288 292 298 306 311 311 311 314 314 315 320 328 324 321 314 313 312 313 315
251 250 251 248 245 243 245 248 252 248 249 251 253 257 258 260 262 266 268 271 272 276 277 281 285 287 292 293 298 307 312 314 315 321 323 326 325 322 317 317 315 313 312
251 249 249 250 248 243 244 245 247 251 250 253 253 256 259 260 264 262 262 264 269 271 274 277 280 283 284 287 294 300 306 311 312 314 321 325 322 322 322 315 314 311 308
251 254 251 249 250 249 247 247 247 249 252 251 253 254 256 258 261 263 260 258 260 263 268 272 275 278 280 283 287 291 297 304 303 305 310 316 319 316 313 314 314 309 306
250 254 249 254 257 251 248 248 250 248 249 251 253 252 252 256 257 258 259 259 259 259 263 269 270 271 274 277 280 285 289 292 297 297 299 303 308 309 311 308 309 306 299
268 260 262 259 271 259 253 250 250 250 252 252 252 252 253 251 252 254 253 257 258 259 261 266 271 274 275 274 275 276 281 284 287 292 293 293 298 298 299 299 300 305 297
274 269 265 278 273 265 251 248 251 250 252 256 256 255 248 247 249 250 252 251 253 257 260 261 266 272 276 278 275 273 278 282 283 282 285 290 289 291 295 296 297 295 297
271 271 268 267 271 272 256 240 239 250 249 249 252 255 252 248 247 251 251 252 251 256 257 259 263 267 270 273 275 275 279 280 281 283 282 282 285 284 286 289 291 289 292
264 267 267 268 267 272 269 253 250 253 260 259 261 261 258 256 255 254 255 255 256 259 258 260 263 266 268 268 270 270 272 275 277 279 282 283 283 281 282 282 284 283 287
261 265 263 265 268 270 270 270 263 258 266 268 269 269 263 263 258 257 257 258 259 259 260 263 265 267 269 269 269 271 272 273 274 275 277 281 283 284 280 282 280 282 282
263 262 260 261 261 264 267 266 268 272 270 271 269 270 271 267 265 264 261 262 263 265 266 266 266 266 268 268 269 268 270 272 274 275 277 278 278 278 280 281 281 285 281
262 262 261 262 260 262 264 262 264 267 268 268 271 273 262 264 265 268 266 263 265 268 270 271 271 269 268 267 264 267 269 271 273 276 277 277 278 278 282 285 287 284 284
260 260 260 260 261 261 263 261 258 259 263 264 266 268 266 264 266 260 267 269 268 264 268 273 272 269 267 266 266 264 266 269 271 272 274 274 277 277 279 280 281 285 287
262 263 261 260 259 259 260 259 257 256 256 257 263 263 265 264 264 266 260 265 269 263 261 267 271 270 270 269 270 271 271 273 274 272 273 276 275 275 277 278 279 279 280
262 263 262 262 262 262 260 258 257 257 257 253 254 259 262 264 265 261 263 260 264 264 257 260 264 266 268 270 273 276 278 278 281 280 276 278 280 281 287 286 283 280 279
263 263 263 263 264 263 263 262 258 256 255 256 256 256 256 258 262 263 260 261 261 257 259 260 263 264 263 266 270 268 276 281 291 295 297 290 291 287 294 298 293 286 279
262 261 261 262 262 263 263 262 262 259 257 256 257 256 256 255 258 259 260 260 258 253 254 256 256 261 262 259 269 273 277 278 284 289 292 293 294 294 294 293 295 293 289
263 263 262 261 260 260 263 263 261 260 259 257 257 258 255 255 256 258 257 259 257 255 253 252 254 256 260 264 269 272 275 278 282 287 290 291 293 296 294 296 293 293 292
263 262 262 262 260 260 259 259 260 259 257 257 256 255 254 254 253 254 256 255 256 254 252 253 256 256 261 264 269 271 273 275 277 279 284 289 293 292 294 290 290 289 290
262 262 261 261 260 258 258 258 257 258 258 256 256 254 252 251 251 251 253 255 256 254 254 251 253 255 258 262 264 266 270 273 273 276 280 284 286 289 291 288 290 288 287
259 260 260 260 260 258 257 256 255 255 256 256 254 252 250 251 249 249 249 250 253 254 252 254 252 253 258 261 262 263 266 269 272 275 278 281 284 286 288 287 288 287 284
257 256 256 257 257 257 257 255 254 255 255 255 255 254 252 249 249 250 248 247 249 251 252 252 253 253 255 258 261 262 262 266 269 275 277 280 283 282 283 283 283 284 283
257 256 257 258 260 261 261 260 260 257 256 256 255 255 254 252 251 252 253 250 247 248 250 252 253 254 254 255 260 261 262 263 265 268 275 279 281 280 280 281 283 284 283
264 263 263 263 264 265 266 266 265 265 263 260 258 257 257 256 255 256 254 252 250 249 248 249 253 253 255 254 258 262 264 266 266 268 271 275 278 279 279 282 284 284 283
269 269 268 266 265 265 265 263 262 260 259 258 257 256 258 257 256 255 255 253 252 252 250 248 249 253 255 256 259 261 265 268 270 272 273 274 276 277 281 282 282 284 284